Regional Weather Roundup
Issued by NWS

Home | Current Version | Previous Version | Graphics & Text | Print | Product List | Glossary On
Versions: 1 2 3 4 5 6 7 8 9 10 11 12 13 14 15 16 17 18 19 20 21 22 23 24 25 26 27 28 29 30 31 32 33 34 35 36 37 38 39 40 41 42 43 44 45 46 47 48 49 50
452
ASUS44 KJAN 240403
RWRMS

MISSISSIPPI HOURLY WEATHER ROUNDUP
NATIONAL WEATHER SERVICE JACKSON MS
1100 PM CDT THU OCT 23 2014

NOTE: "FAIR: INDICATES FEW OR NO CLOUDS BELOW 12,000 FEET WITH NO
SIGNIFICANT WEATHER AND/OR OBSTRUCTIONS TO VISIBILITY.

MSZ001>002-007>008-010>013-018>021-025>028-034>036-240500-
NORTHWEST MISSISSIPPI

CITY           SKY/WX    TMP DP  RH WIND       PRES   REMARKS
CLARKSDALE     FAIR      48  48 100 N3        30.15F
CLEVELAND      FAIR      49  48  94 CALM      30.12F
GREENWOOD      PTCLDY    49  47  93 CALM      30.13S
GREENVILLE     CLEAR     48  46  93 NE5       30.12F
GRENADA          N/A    N/A N/A N/A MISG        N/A
OLIVE BRANCH   CLEAR     52  50  93 CALM      30.14S
OXFORD         FAIR      48  46  93 CALM      30.13F
TUNICA         CLOUDY    54  48  82 N8        30.15F
$$

MSZ003>006-009-014>017-022>024-029>033-037>039-240500-
NORTHEAST MISSISSIPPI

CITY           SKY/WX    TMP DP  RH WIND       PRES   REMARKS
COLUMBUS AFB   CLOUDY    56  49  79 N1        30.11S
CORINTH        FAIR      54  48  82 SE3       30.12S
GOLDN TRIANGLE CLOUDY    55  46  71 N3        30.11F
STARKVILLE     FAIR      52  50  93 NW3       30.12S
TUPELO         CLOUDY    55  48  77 N3        30.12F
$$

MSZ040-058-240500-
CENTRAL MISSISSIPPI

CITY           SKY/WX    TMP DP  RH WIND       PRES   REMARKS
JACKSON INTL   CLEAR     48  45  89 CALM      30.13F
JACKSON HAWKNS CLEAR     52  49  89 CALM      30.12F
MERIDIAN KEY   PTCLDY    52  48  86 CALM      30.10F
MERIDIAN NAS   CLOUDY    53  48  83 NW5       30.10F
RAYMOND        FAIR      48  45  87 CALM      30.12F
VICKSBURG      CLEAR     52  49  89 N3        30.13F
$$

MSZ059>079-240500-
SOUTH MISSISSIPPI

CITY           SKY/WX    TMP DP  RH WIND       PRES   REMARKS
BROOKHAVEN     FAIR      52  52 100 CALM      30.13S
COLUMBIA         N/A    N/A N/A N/A MISG        N/A
HATTIESBURG    PTCLDY    54  51  90 CALM      30.11S
MCCOMB           N/A     56  49  77 N6        30.11S
NATCHEZ        CLEAR     54  48  82 CALM      30.12F
PINE BELT      PTCLDY    55  46  71 NE5       30.11S
$$

MSZ080>082-240500-
COASTAL MISSISSIPPI

CITY           SKY/WX    TMP DP  RH WIND       PRES   REMARKS
BILOXI         CLOUDY    63  49  60 NE3       30.07F
PASCAGOULA     CLOUDY    56  52  86 CALM      30.07F
GULFPORT       CLOUDY    62  48  60 N5        30.07S
$$



USA.gov is the U.S. government's official web portal to all federal, state and local government web resources and services.